Location: Helsinki
(60.1699°N, 24.9384°E)
Time: 22:22:21
(UTC+02:00)

A-11 Canister half - Pass Details

Date: 04 November 2020
Orbit: 1516 x 1684 km, 47.2° (Epoch: 26 November)

Event Time Altitude Azimuth Distance (km) Brightness Sun altitude
Rises 22:03:51 0° 258° (WSW) 4,934 11.9 -40.5°
Reaches altitude 10° 22:07:19 10° 251° (WSW) 3,936 11.3 -40.8°
Enters shadow 22:11:16 24° 236° (SW) 2,941 10.4 -41.1°
Maximum altitude 22:16:15 38° 189° (S) 2,331 - -41.4°
Drops below altitude 10° 22:24:59 10° 126° (SE) 3,836 - -42.1°
Sets 22:28:18 0° 119° (ESE) 4,796 - -42.3°
